• In India
  • List of Countries
  • For 7 days
  • Water Temperature
  • Satellite Maps
  • Weather Map
  • Weather Widgets
  • user-avatar
    Login

    Hourly Weather Consaca

    Today, 21 February, Wednesday

    Time Temperature Precipitation Wind Pressure Humidity
    00:00 +16°C° 0.3 mm 0 mps 620 mmHg 95%
    01:00 +16°C° 0.3 mm 0 mps 620 mmHg 94%
    02:00 +16°C° 0.2 mm 0 mps 619 mmHg 94%
    03:00 +16°C° 0.2 mm 0 mps 619 mmHg 93%
    04:00 +15°C° 0.2 mm 0 mps 619 mmHg 93%
    05:00 +15°C° 0.1 mm 0 mps 619 mmHg 91%
    06:00 +18°C° 0.1 mm 1 mps 619 mmHg 90%
    07:00 +18°C° 0.1 mm 1 mps 620 mmHg 89%
    08:00 +19°C° 0 mm 1 mps 620 mmHg 82%
    09:00 +21°C° 0 mm 1 mps 621 mmHg 75%
    10:00 +23°C° 0 mm 1 mps 622 mmHg 67%
    11:00 +23°C° 0.1 mm 1 mps 622 mmHg 67%
    12:00 +24°C° 0.1 mm 2 mps 622 mmHg 67%
    13:00 +24°C° 0.1 mm 2 mps 621 mmHg 66%
    14:00 +24°C° 0.7 mm 2 mps 621 mmHg 70%
    15:00 +23°C° 0.7 mm 2 mps 620 mmHg 74%
    16:00 +21°C° 0.7 mm 2 mps 619 mmHg 78%
    17:00 +20°C° 0.6 mm 2 mps 619 mmHg 83%
    18:00 +20°C° 0.6 mm 1 mps 619 mmHg 88%
    19:00 +19°C° 0.6 mm 1 mps 619 mmHg 94%
    20:00 +19°C° 0.5 mm 1 mps 619 mmHg 94%
    21:00 +19°C° 0.5 mm 1 mps 620 mmHg 94%
    22:00 +19°C° 0.5 mm 1 mps 621 mmHg 95%
    23:00 +18°C° 0.5 mm 1 mps 620 mmHg 94%

    Tomorrow, 22 February, Thursday

    Time Temperature Precipitation Wind Pressure Humidity
    00:00 +18°C° 0.5 mm 1 mps 620 mmHg 94%
    01:00 +18°C° 0.5 mm 1 mps 620 mmHg 93%
    02:00 +16°C° 0.2 mm 0 mps 620 mmHg 93%
    03:00 +15°C° 0.2 mm 0 mps 619 mmHg 93%
    04:00 +15°C° 0.2 mm 0 mps 619 mmHg 92%
    05:00 +15°C° 0 mm 0 mps 619 mmHg 91%
    06:00 +16°C° 0 mm 1 mps 620 mmHg 90%
    07:00 +16°C° 0 mm 1 mps 620 mmHg 88%
    08:00 +19°C° 0 mm 1 mps 621 mmHg 79%
    09:00 +21°C° 0 mm 1 mps 622 mmHg 71%
    10:00 +23°C° 0 mm 1 mps 623 mmHg 62%
    11:00 +23°C° 0.2 mm 2 mps 622 mmHg 62%
    12:00 +24°C° 0.2 mm 2 mps 621 mmHg 62%
    13:00 +24°C° 0.2 mm 2 mps 621 mmHg 62%
    14:00 +24°C° 0.6 mm 2 mps 620 mmHg 66%
    15:00 +23°C° 0.6 mm 2 mps 619 mmHg 69%
    16:00 +23°C° 0.6 mm 2 mps 619 mmHg 73%
    17:00 +20°C° 0.7 mm 2 mps 619 mmHg 80%
    18:00 +20°C° 0.7 mm 1 mps 619 mmHg 86%
    19:00 +19°C° 0.7 mm 1 mps 619 mmHg 93%
    20:00 +18°C° 0.2 mm 1 mps 619 mmHg 93%
    21:00 +18°C° 0.2 mm 1 mps 619 mmHg 93%
    22:00 +18°C° 0.2 mm 1 mps 620 mmHg 94%
    23:00 +18°C° 0 mm 1 mps 620 mmHg 93%

    Day after tomorrow, 23 February, Friday

    Time Temperature Precipitation Wind Pressure Humidity
    00:00 +16°C° 0 mm 1 mps 620 mmHg 92%
    01:00 +16°C° 0 mm 1 mps 619 mmHg 91%
    02:00 +16°C° 0 mm 1 mps 619 mmHg 90%
    03:00 +16°C° 0 mm 1 mps 619 mmHg 89%
    04:00 +15°C° 0 mm 1 mps 618 mmHg 88%
    05:00 +15°C° 0 mm 1 mps 619 mmHg 87%
    06:00 +16°C° 0 mm 1 mps 619 mmHg 85%
    07:00 +16°C° 0 mm 1 mps 619 mmHg 84%
    08:00 +19°C° 0 mm 1 mps 620 mmHg 75%
    09:00 +21°C° 0 mm 1 mps 621 mmHg 66%
    10:00 +23°C° 0 mm 2 mps 622 mmHg 56%
    11:00 +24°C° 0.1 mm 2 mps 622 mmHg 57%
    12:00 +24°C° 0.1 mm 2 mps 621 mmHg 58%
    13:00 +24°C° 0.1 mm 2 mps 620 mmHg 60%
    14:00 +24°C° 0.4 mm 2 mps 620 mmHg 63%
    15:00 +23°C° 0.4 mm 2 mps 619 mmHg 66%
    16:00 +23°C° 0.4 mm 2 mps 618 mmHg 69%
    17:00 +20°C° 0.5 mm 2 mps 618 mmHg 76%
    18:00 +20°C° 0.5 mm 1 mps 618 mmHg 84%
    19:00 +18°C° 0.5 mm 1 mps 618 mmHg 91%
    20:00 +18°C° 0.2 mm 1 mps 619 mmHg 92%
    21:00 +18°C° 0.2 mm 1 mps 619 mmHg 92%
    22:00 +16°C° 0.2 mm 1 mps 619 mmHg 93%
    23:00 +16°C° 0 mm 1 mps 619 mmHg 91%

    24 February, Saturday

    Time Temperature Precipitation Wind Pressure Humidity
    00:00 +16°C° 0 mm 1 mps 619 mmHg 89%
    01:00 +15°C° 0 mm 0 mps 619 mmHg 88%
    02:00 +16°C° 0 mm 1 mps 618 mmHg 88%
    03:00 +16°C° 0 mm 1 mps 618 mmHg 88%
    04:00 +15°C° 0 mm 1 mps 618 mmHg 88%
    05:00 +15°C° 0 mm 1 mps 618 mmHg 86%
    06:00 +16°C° 0 mm 1 mps 619 mmHg 84%
    07:00 +16°C° 0 mm 1 mps 619 mmHg 82%
    08:00 +19°C° 0 mm 1 mps 620 mmHg 74%
    09:00 +21°C° 0 mm 1 mps 621 mmHg 66%
    10:00 +23°C° 0 mm 1 mps 622 mmHg 58%
    11:00 +23°C° 0.3 mm 2 mps 621 mmHg 60%
    12:00 +23°C° 0.3 mm 2 mps 620 mmHg 63%
    13:00 +23°C° 0.3 mm 2 mps 620 mmHg 65%
    14:00 +23°C° 0.7 mm 2 mps 619 mmHg 68%
    15:00 +21°C° 0.7 mm 2 mps 619 mmHg 72%
    16:00 +21°C° 0.7 mm 2 mps 618 mmHg 75%
    17:00 +20°C° 0.7 mm 2 mps 618 mmHg 81%
    18:00 +19°C° 0.7 mm 1 mps 618 mmHg 87%
    19:00 +18°C° 0.7 mm 1 mps 618 mmHg 92%
    20:00 +18°C° 0.3 mm 1 mps 619 mmHg 92%
    21:00 +16°C° 0.3 mm 1 mps 619 mmHg 92%
    22:00 +16°C° 0.3 mm 1 mps 619 mmHg 92%
    23:00 +16°C° 0.1 mm 1 mps 619 mmHg 91%

    25 February, Sunday

    Time Temperature Precipitation Wind Pressure Humidity
    00:00 +16°C° 0.1 mm 1 mps 619 mmHg 89%
    01:00 +16°C° 0.1 mm 1 mps 619 mmHg 88%
    02:00 +15°C° 0 mm 1 mps 618 mmHg 87%
    03:00 +15°C° 0 mm 1 mps 618 mmHg 87%
    04:00 +15°C° 0 mm 1 mps 618 mmHg 87%
    05:00 +15°C° 0 mm 1 mps 618 mmHg 86%
    06:00 +15°C° 0 mm 1 mps 619 mmHg 85%
    07:00 +15°C° 0 mm 1 mps 619 mmHg 85%
    08:00 +19°C° 0.1 mm 1 mps 620 mmHg 76%
    09:00 +21°C° 0.1 mm 1 mps 621 mmHg 67%
    10:00 +23°C° 0.1 mm 1 mps 622 mmHg 58%
    11:00 +23°C° 0.3 mm 2 mps 621 mmHg 60%
    12:00 +23°C° 0.3 mm 2 mps 621 mmHg 62%
    13:00 +23°C° 0.3 mm 2 mps 620 mmHg 64%
    14:00 +23°C° 0.5 mm 2 mps 619 mmHg 66%
    15:00 +23°C° 0.5 mm 2 mps 619 mmHg 68%
    16:00 +23°C° 0.5 mm 2 mps 618 mmHg 71%
    17:00 +20°C° 0.7 mm 2 mps 618 mmHg 78%
    18:00 +19°C° 0.7 mm 1 mps 618 mmHg 86%
    19:00 +18°C° 0.7 mm 1 mps 618 mmHg 94%
    20:00 +16°C° 0.3 mm 1 mps 619 mmHg 93%
    21:00 +16°C° 0.3 mm 1 mps 619 mmHg 93%
    22:00 +16°C° 0.3 mm 1 mps 620 mmHg 93%
    23:00 +16°C° 0 mm 1 mps 619 mmHg 92%

    26 February, Monday

    Time Temperature Precipitation Wind Pressure Humidity
    00:00 +15°C° 0 mm 1 mps 619 mmHg 91%
    01:00 +15°C° 0 mm 1 mps 619 mmHg 90%
    02:00 +15°C° 0 mm 1 mps 618 mmHg 89%
    03:00 +15°C° 0 mm 1 mps 618 mmHg 88%
    04:00 +14°C° 0 mm 1 mps 618 mmHg 87%
    05:00 +15°C° 0 mm 1 mps 618 mmHg 85%
    06:00 +15°C° 0 mm 1 mps 619 mmHg 83%
    07:00 +15°C° 0 mm 1 mps 620 mmHg 82%
    08:00 +19°C° 0 mm 1 mps 620 mmHg 72%
    09:00 +21°C° 0 mm 1 mps 621 mmHg 63%
    10:00 +23°C° 0 mm 1 mps 622 mmHg 54%
    11:00 +23°C° 0.3 mm 2 mps 622 mmHg 56%
    12:00 +23°C° 0.3 mm 2 mps 621 mmHg 59%
    13:00 +23°C° 0.3 mm 2 mps 621 mmHg 62%
    14:00 +23°C° 0.5 mm 2 mps 620 mmHg 66%
    15:00 +21°C° 0.5 mm 2 mps 619 mmHg 70%
    16:00 +20°C° 0.5 mm 2 mps 619 mmHg 74%
    17:00 +19°C° 0.5 mm 2 mps 619 mmHg 80%
    18:00 +19°C° 0.5 mm 1 mps 619 mmHg 86%
    19:00 +18°C° 0.5 mm 1 mps 619 mmHg 92%
    20:00 +18°C° 0.2 mm 1 mps 619 mmHg 92%
    21:00 +18°C° 0.2 mm 1 mps 619 mmHg 91%
    22:00 +18°C° 0.2 mm 1 mps 620 mmHg 91%
    23:00 +16°C° 0.1 mm 1 mps 619 mmHg 90%
    Show more